UAL1007 KSFO-KSEA

Flight info

Callsign UAL1007
Flight time 1h 43m
Altitude 36000
Route TRUKN2 DEDHD RBL LMT HAWKZ8
Aircraft B738/M-SDE2E3FGHIRWXY/LB1

Departure

Time 2026-05-05 04:23
Airport San Francisco International Airport (KSFO)

Arrival

Time 2026-05-05 06:06
Airport Seattle–Tacoma International Airport (KSEA)
Time Latitude Longitude Altitude Speed Heading
2026-05-05 03:29 37.62111 -122.39074 21 ft 0 kts 118°
2026-05-05 04:08 37.62117 -122.39088 21 ft 4 kts 118°
2026-05-05 04:08 37.62125 -122.39108 21 ft 3 kts 118°
2026-05-05 04:09 37.62135 -122.39132 23 ft 4 kts 99°
2026-05-05 04:09 37.62133 -122.39163 22 ft 4 kts 56°
2026-05-05 04:09 37.62115 -122.39182 23 ft 4 kts 28°
2026-05-05 04:09 37.62101 -122.39191 21 ft 0 kts 28°
2026-05-05 04:13 37.62106 -122.39188 22 ft 3 kts 28°
2026-05-05 04:13 37.62148 -122.39160 22 ft 9 kts 27°
2026-05-05 04:13 37.62206 -122.39120 23 ft 9 kts 35°
2026-05-05 04:13 37.62241 -122.39052 21 ft 9 kts 71°
2026-05-05 04:14 37.62258 -122.38975 22 ft 9 kts 75°
2026-05-05 04:14 37.62258 -122.38899 21 ft 9 kts 110°
2026-05-05 04:14 37.62230 -122.38832 21 ft 8 kts 117°
2026-05-05 04:14 37.62202 -122.38765 22 ft 11 kts 117°
2026-05-05 04:15 37.62160 -122.38665 21 ft 13 kts 118°
2026-05-05 04:15 37.62118 -122.38565 22 ft 13 kts 118°
2026-05-05 04:15 37.62076 -122.38465 21 ft 13 kts 117°
2026-05-05 04:15 37.62036 -122.38370 21 ft 12 kts 117°
2026-05-05 04:16 37.61997 -122.38276 21 ft 12 kts 118°
2026-05-05 04:16 37.61959 -122.38185 21 ft 12 kts 118°
2026-05-05 04:16 37.61921 -122.38096 22 ft 11 kts 118°
2026-05-05 04:16 37.61885 -122.38010 21 ft 11 kts 118°
2026-05-05 04:17 37.61849 -122.37926 23 ft 11 kts 116°
2026-05-05 04:17 37.61821 -122.37841 21 ft 10 kts 111°
2026-05-05 04:17 37.61795 -122.37758 21 ft 10 kts 111°
2026-05-05 04:17 37.61770 -122.37677 22 ft 10 kts 111°
2026-05-05 04:18 37.61746 -122.37598 21 ft 10 kts 111°
2026-05-05 04:18 37.61721 -122.37519 21 ft 10 kts 116°
2026-05-05 04:18 37.61688 -122.37440 22 ft 11 kts 118°
2026-05-05 04:18 37.61640 -122.37324 22 ft 17 kts 118°
2026-05-05 04:19 37.61588 -122.37199 21 ft 16 kts 118°
2026-05-05 04:19 37.61537 -122.37077 21 ft 15 kts 117°
2026-05-05 04:19 37.61486 -122.36961 21 ft 15 kts 124°
2026-05-05 04:19 37.61422 -122.36863 21 ft 14 kts 133°
2026-05-05 04:20 37.61361 -122.36769 21 ft 14 kts 122°
2026-05-05 04:20 37.61319 -122.36668 21 ft 13 kts 117°
2026-05-05 04:20 37.61277 -122.36568 23 ft 13 kts 117°
2026-05-05 04:20 37.61237 -122.36472 21 ft 12 kts 117°
2026-05-05 04:21 37.61197 -122.36378 22 ft 12 kts 118°
2026-05-05 04:21 37.61158 -122.36286 23 ft 12 kts 118°
2026-05-05 04:21 37.61119 -122.36197 22 ft 11 kts 118°
2026-05-05 04:21 37.61120 -122.36101 24 ft 12 kts 49°
2026-05-05 04:22 37.61192 -122.36048 21 ft 12 kts 27°
2026-05-05 04:22 37.61283 -122.36105 21 ft 27 kts 300°
2026-05-05 04:22 37.61438 -122.36468 23 ft 75 kts 297°
2026-05-05 04:22 37.61780 -122.37288 21 ft 134 kts 297°
2026-05-05 04:23 37.62261 -122.38455 317 ft 156 kts 297°
2026-05-05 04:23 37.62737 -122.39673 989 ft 162 kts 298°
2026-05-05 04:23 37.63639 -122.40643 1308 ft 191 kts 343°
2026-05-05 04:23 37.64996 -122.40483 1792 ft 204 kts 21°
2026-05-05 04:24 37.66042 -122.39211 2313 ft 219 kts 60°
2026-05-05 04:24 37.66624 -122.37420 2868 ft 223 kts 66°
2026-05-05 04:24 37.67189 -122.35594 3482 ft 225 kts 67°
2026-05-05 04:25 37.68433 -122.31656 4277 ft 254 kts 68°
2026-05-05 04:25 37.69099 -122.29598 5118 ft 252 kts 69°
2026-05-05 04:25 37.69772 -122.27532 5837 ft 256 kts 68°
2026-05-05 04:25 37.70441 -122.25483 6680 ft 254 kts 68°
2026-05-05 04:26 37.71130 -122.23421 7394 ft 256 kts 62°
2026-05-05 04:26 37.72283 -122.21753 8121 ft 255 kts 30°
2026-05-05 04:26 37.73930 -122.21026 8948 ft 251 kts 10°
2026-05-05 04:26 37.75670 -122.20697 9675 ft 253 kts
2026-05-05 04:27 37.77434 -122.20427 10323 ft 257 kts
2026-05-05 04:27 37.79218 -122.20162 10974 ft 260 kts
2026-05-05 04:27 37.81020 -122.19891 11658 ft 261 kts
2026-05-05 04:27 37.82833 -122.19611 12288 ft 267 kts
2026-05-05 04:28 37.84723 -122.19314 12520 ft 288 kts
2026-05-05 04:28 37.86793 -122.18983 12700 ft 310 kts
2026-05-05 04:28 37.89005 -122.18621 12853 ft 332 kts
2026-05-05 04:28 37.91364 -122.18242 13001 ft 351 kts
2026-05-05 04:29 37.93855 -122.17836 13177 ft 368 kts
2026-05-05 04:29 37.96430 -122.17417 13575 ft 377 kts
2026-05-05 04:29 37.99043 -122.16989 14238 ft 379 kts
2026-05-05 04:29 38.01665 -122.16563 14908 ft 380 kts 10°
2026-05-05 04:30 38.04261 -122.16139 15563 ft 382 kts 10°
2026-05-05 04:30 38.06909 -122.15705 16201 ft 384 kts 11°
2026-05-05 04:30 38.09573 -122.15266 16815 ft 387 kts 11°
2026-05-05 04:30 38.12259 -122.14824 17421 ft 390 kts 11°
2026-05-05 04:31 38.14960 -122.14377 18023 ft 393 kts 11°
2026-05-05 04:31 38.17689 -122.13928 18588 ft 396 kts 12°
2026-05-05 04:31 38.20427 -122.13477 19133 ft 397 kts 12°
2026-05-05 04:31 38.23171 -122.13024 19695 ft 398 kts 12°
2026-05-05 04:32 38.25933 -122.12568 20217 ft 400 kts 12°
2026-05-05 04:32 38.28667 -122.12117 20729 ft 402 kts 12°
2026-05-05 04:32 38.31456 -122.11655 21223 ft 404 kts 12°
2026-05-05 04:32 38.34261 -122.11245 21665 ft 409 kts
2026-05-05 04:33 38.37139 -122.11275 22101 ft 416 kts
2026-05-05 04:33 38.40041 -122.11493 22553 ft 418 kts
2026-05-05 04:33 38.42931 -122.11758 23006 ft 421 kts
2026-05-05 04:33 38.45868 -122.12022 23401 ft 424 kts
2026-05-05 04:34 38.48828 -122.12277 23781 ft 426 kts
2026-05-05 04:34 38.51806 -122.12516 24120 ft 429 kts
2026-05-05 04:34 38.54765 -122.12734 24317 ft 434 kts
2026-05-05 04:34 38.57793 -122.12949 24596 ft 437 kts
2026-05-05 04:35 38.60830 -122.13161 24980 ft 438 kts
2026-05-05 04:35 38.63878 -122.13369 25302 ft 440 kts
2026-05-05 04:35 38.66949 -122.13576 25615 ft 442 kts
2026-05-05 04:35 38.70035 -122.13789 25916 ft 445 kts
2026-05-05 04:36 38.73127 -122.14000 26208 ft 447 kts
2026-05-05 04:36 38.76242 -122.14214 26520 ft 448 kts
2026-05-05 04:36 38.79361 -122.14429 26796 ft 450 kts
2026-05-05 04:36 38.82499 -122.14646 27076 ft 452 kts
2026-05-05 04:37 38.85641 -122.14863 27387 ft 453 kts
2026-05-05 04:37 38.88747 -122.15078 27805 ft 452 kts
2026-05-05 04:37 38.91877 -122.15297 28304 ft 448 kts
2026-05-05 04:37 38.94981 -122.15514 28884 ft 444 kts
2026-05-05 04:38 38.98060 -122.15729 29345 ft 442 kts
2026-05-05 04:38 39.01144 -122.15942 29693 ft 443 kts
2026-05-05 04:38 39.04220 -122.16154 30057 ft 443 kts
2026-05-05 04:38 39.07302 -122.16368 30445 ft 441 kts
2026-05-05 04:39 39.10367 -122.16581 30843 ft 438 kts
2026-05-05 04:39 39.13367 -122.16791 31267 ft 436 kts
2026-05-05 04:39 39.16386 -122.17001 31627 ft 434 kts
2026-05-05 04:39 39.19407 -122.17212 31958 ft 434 kts
2026-05-05 04:40 39.22417 -122.17421 32312 ft 432 kts
2026-05-05 04:40 39.25418 -122.17630 32708 ft 430 kts
2026-05-05 04:40 39.28396 -122.17839 33069 ft 428 kts
2026-05-05 04:40 39.31373 -122.18046 33263 ft 430 kts
2026-05-05 04:41 39.34376 -122.18254 33467 ft 432 kts
2026-05-05 04:41 39.37368 -122.18463 33811 ft 429 kts
2026-05-05 04:41 39.40332 -122.18673 34203 ft 426 kts
2026-05-05 04:41 39.43299 -122.18882 34421 ft 427 kts
2026-05-05 04:42 39.46275 -122.19090 34546 ft 429 kts
2026-05-05 04:42 39.49260 -122.19298 34713 ft 430 kts
2026-05-05 04:42 39.52244 -122.19509 34997 ft 429 kts
2026-05-05 04:42 39.55184 -122.19716 35216 ft 429 kts
2026-05-05 04:43 39.58170 -122.19926 35389 ft 430 kts
2026-05-05 04:43 39.61162 -122.20136 35587 ft 430 kts
2026-05-05 04:43 39.64152 -122.20348 35813 ft 430 kts
2026-05-05 04:43 39.67141 -122.20559 35968 ft 431 kts
2026-05-05 04:44 39.70141 -122.20770 35976 ft 432 kts
2026-05-05 04:44 39.76154 -122.21197 35988 ft 430 kts
2026-05-05 04:45 39.82060 -122.21618 35985 ft 426 kts
2026-05-05 04:45 39.87983 -122.22039 35977 ft 424 kts
2026-05-05 04:46 39.93864 -122.22457 35984 ft 422 kts
2026-05-05 04:46 39.99724 -122.22873 35991 ft 422 kts
2026-05-05 04:47 40.05595 -122.23292 35991 ft 423 kts
2026-05-05 04:47 40.11413 -122.23322 36036 ft 417 kts 13°
2026-05-05 04:48 40.17114 -122.21952 36045 ft 417 kts 15°
2026-05-05 04:48 40.22805 -122.20532 36049 ft 419 kts 15°
2026-05-05 04:49 40.28540 -122.19128 36026 ft 419 kts 15°
2026-05-05 04:49 40.34272 -122.17740 36006 ft 418 kts 15°
2026-05-05 04:50 40.40002 -122.16356 36015 ft 418 kts 15°
2026-05-05 04:50 40.45677 -122.14984 36012 ft 416 kts 15°
2026-05-05 04:51 40.51339 -122.13614 36015 ft 411 kts 15°
2026-05-05 04:51 40.56956 -122.12250 36017 ft 409 kts 15°
2026-05-05 04:52 40.62550 -122.10888 36006 ft 408 kts 15°
2026-05-05 04:52 40.68100 -122.09535 35991 ft 407 kts 15°
2026-05-05 04:53 40.73681 -122.08172 35986 ft 408 kts 15°
2026-05-05 04:53 40.79280 -122.06802 35984 ft 410 kts 15°
2026-05-05 04:54 40.84916 -122.05419 35981 ft 412 kts 15°
2026-05-05 04:54 40.90576 -122.04031 35975 ft 414 kts 16°
2026-05-05 04:55 40.96227 -122.02637 35980 ft 416 kts 15°
2026-05-05 04:55 41.01930 -122.01238 35951 ft 417 kts 15°
2026-05-05 04:56 41.07645 -121.99830 35897 ft 417 kts 16°
2026-05-05 04:56 41.13346 -121.98424 35933 ft 417 kts 16°
2026-05-05 04:57 41.18092 -121.97248 35918 ft 417 kts 16°
2026-05-05 04:57 41.23805 -121.95838 35913 ft 417 kts 16°
2026-05-05 04:58 41.29518 -121.94415 35891 ft 417 kts 16°
2026-05-05 04:58 41.35231 -121.92992 35901 ft 417 kts 16°
2026-05-05 04:59 41.40903 -121.91578 35887 ft 417 kts 15°
2026-05-05 04:59 41.46611 -121.90153 35894 ft 417 kts 15°
2026-05-05 05:00 41.52333 -121.88724 35882 ft 417 kts 16°
2026-05-05 05:00 41.58013 -121.87302 35884 ft 417 kts 16°
2026-05-05 05:01 41.63728 -121.85865 35876 ft 417 kts 16°
2026-05-05 05:01 41.69447 -121.84426 35869 ft 417 kts 16°
2026-05-05 05:02 41.75116 -121.82999 35857 ft 416 kts 16°
2026-05-05 05:02 41.80812 -121.81562 35865 ft 416 kts 16°
2026-05-05 05:03 41.86505 -121.80123 35878 ft 415 kts 16°
2026-05-05 05:03 41.92193 -121.78681 35886 ft 415 kts 16°
2026-05-05 05:04 41.97833 -121.77250 35904 ft 414 kts 16°
2026-05-05 05:04 42.03489 -121.75812 35922 ft 413 kts 16°
2026-05-05 05:05 42.09142 -121.74373 35935 ft 413 kts 16°
2026-05-05 05:05 42.14809 -121.73007 35927 ft 416 kts 10°
2026-05-05 05:05 42.17706 -121.73169 35944 ft 426 kts 358°
2026-05-05 05:06 42.20632 -121.73837 35846 ft 427 kts 357°
2026-05-05 05:06 42.26491 -121.75254 35846 ft 427 kts 356°
2026-05-05 05:07 42.32351 -121.76641 35836 ft 427 kts 357°
2026-05-05 05:07 42.38149 -121.78042 35834 ft 425 kts 357°
2026-05-05 05:08 42.43982 -121.79339 35840 ft 423 kts 358°
2026-05-05 05:08 42.49785 -121.80660 35837 ft 423 kts 357°
2026-05-05 05:09 42.55592 -121.81967 35832 ft 422 kts 357°
2026-05-05 05:09 42.61381 -121.83292 35850 ft 421 kts 357°
2026-05-05 05:10 42.67164 -121.84608 35857 ft 420 kts 357°
2026-05-05 05:10 42.72941 -121.85932 35845 ft 420 kts 357°
2026-05-05 05:11 42.78662 -121.87249 35857 ft 419 kts 357°
2026-05-05 05:11 42.84419 -121.88577 35864 ft 419 kts 357°
2026-05-05 05:12 42.90185 -121.89910 35871 ft 420 kts 357°
2026-05-05 05:12 42.95944 -121.91244 35877 ft 420 kts 357°
2026-05-05 05:13 43.01707 -121.92580 35867 ft 420 kts 357°
2026-05-05 05:13 43.07447 -121.93914 35877 ft 421 kts 357°
2026-05-05 05:14 43.13229 -121.95261 35876 ft 420 kts 356°
2026-05-05 05:14 43.19000 -121.96608 35888 ft 420 kts 356°
2026-05-05 05:15 43.24771 -121.97956 35877 ft 420 kts 356°
2026-05-05 05:15 43.30531 -121.99306 35862 ft 420 kts 356°
2026-05-05 05:16 43.36263 -122.00652 35901 ft 419 kts 356°
2026-05-05 05:16 43.42016 -122.02000 35932 ft 419 kts 356°
2026-05-05 05:17 43.47767 -122.03361 35913 ft 419 kts 356°
2026-05-05 05:17 43.53471 -122.04714 35923 ft 418 kts 356°
2026-05-05 05:18 43.59207 -122.06072 35935 ft 418 kts 356°
2026-05-05 05:18 43.64956 -122.07425 35920 ft 416 kts 356°
2026-05-05 05:19 43.70662 -122.08780 35941 ft 416 kts 356°
2026-05-05 05:19 43.76366 -122.10156 35955 ft 416 kts 356°
2026-05-05 05:20 43.82049 -122.11515 35961 ft 417 kts 356°
2026-05-05 05:20 43.87778 -122.12884 35987 ft 419 kts 355°
2026-05-05 05:21 43.93537 -122.14318 35956 ft 419 kts 356°
2026-05-05 05:21 43.99291 -122.15685 35962 ft 419 kts 356°
2026-05-05 05:22 44.05037 -122.17048 35961 ft 419 kts 356°
2026-05-05 05:22 44.10755 -122.18409 35970 ft 418 kts 356°
2026-05-05 05:23 44.16499 -122.19778 35964 ft 419 kts 356°
2026-05-05 05:23 44.22239 -122.21169 35975 ft 418 kts 355°
2026-05-05 05:24 44.27971 -122.22564 35948 ft 417 kts 356°
2026-05-05 05:24 44.33680 -122.23936 35933 ft 415 kts 355°
2026-05-05 05:25 44.39368 -122.25322 35951 ft 415 kts 355°
2026-05-05 05:25 44.45046 -122.26806 35956 ft 415 kts 355°
2026-05-05 05:26 44.50735 -122.28159 35951 ft 415 kts 356°
2026-05-05 05:26 44.56424 -122.29517 35925 ft 414 kts 355°
2026-05-05 05:27 44.62066 -122.30913 35951 ft 414 kts 355°
2026-05-05 05:27 44.70598 -122.32996 35958 ft 415 kts 355°
2026-05-05 05:28 44.76271 -122.34405 35945 ft 417 kts 355°
2026-05-05 05:28 44.82002 -122.35816 35968 ft 418 kts 355°
2026-05-05 05:29 44.87757 -122.37239 35966 ft 419 kts 355°
2026-05-05 05:29 44.93507 -122.38667 35942 ft 420 kts 355°
2026-05-05 05:30 44.99280 -122.40101 35944 ft 420 kts 355°
2026-05-05 05:30 45.05005 -122.41530 35961 ft 420 kts 354°
2026-05-05 05:31 45.10771 -122.42970 35963 ft 420 kts 355°
2026-05-05 05:31 45.16531 -122.44409 35954 ft 420 kts 354°
2026-05-05 05:32 45.22287 -122.45853 35968 ft 418 kts 354°
2026-05-05 05:32 45.28015 -122.47292 35964 ft 417 kts 354°
2026-05-05 05:33 45.33737 -122.48732 35963 ft 416 kts 354°
2026-05-05 05:33 45.39438 -122.50170 35936 ft 416 kts 354°
2026-05-05 05:34 45.45091 -122.51599 35950 ft 415 kts 354°
2026-05-05 05:34 45.50785 -122.53042 35958 ft 415 kts 354°
2026-05-05 05:35 45.56469 -122.54484 35954 ft 414 kts 354°
2026-05-05 05:35 45.62151 -122.55929 35961 ft 414 kts 354°
2026-05-05 05:36 45.67805 -122.57370 35972 ft 415 kts 354°
2026-05-05 05:36 45.73495 -122.58823 35938 ft 416 kts 354°
2026-05-05 05:37 45.79206 -122.60258 35930 ft 416 kts 354°
2026-05-05 05:37 45.84928 -122.61662 35613 ft 423 kts 354°
2026-05-05 05:38 45.87834 -122.62376 35063 ft 423 kts 354°
2026-05-05 05:38 45.90742 -122.63095 34416 ft 423 kts 354°
2026-05-05 05:38 45.93616 -122.63808 33751 ft 424 kts 354°
2026-05-05 05:38 45.96540 -122.64534 32985 ft 426 kts 353°
2026-05-05 05:39 45.99461 -122.65262 32251 ft 426 kts 353°
2026-05-05 05:39 46.02398 -122.65995 31514 ft 428 kts 353°
2026-05-05 05:39 46.05337 -122.66725 30750 ft 430 kts 353°
2026-05-05 05:39 46.08286 -122.67458 30004 ft 431 kts 353°
2026-05-05 05:40 46.11254 -122.68176 29065 ft 433 kts 354°
2026-05-05 05:40 46.14247 -122.68788 28271 ft 433 kts 355°
2026-05-05 05:40 46.17209 -122.69343 27688 ft 427 kts 355°
2026-05-05 05:40 46.20146 -122.69891 27088 ft 423 kts 355°
2026-05-05 05:41 46.23011 -122.70438 26501 ft 419 kts 354°
2026-05-05 05:41 46.25889 -122.71001 25909 ft 415 kts 354°
2026-05-05 05:41 46.28746 -122.71568 25339 ft 412 kts 354°
2026-05-05 05:41 46.31570 -122.72130 24766 ft 409 kts 355°
2026-05-05 05:42 46.34395 -122.72512 24178 ft 405 kts 359°
2026-05-05 05:42 46.37199 -122.72634 23593 ft 402 kts
2026-05-05 05:42 46.39986 -122.72673 22943 ft 400 kts
2026-05-05 05:42 46.42754 -122.72703 22326 ft 396 kts
2026-05-05 05:43 46.44578 -122.72733 21922 ft 394 kts
2026-05-05 05:43 46.47304 -122.72795 21363 ft 390 kts
2026-05-05 05:43 46.50888 -122.72903 20638 ft 385 kts 360°
2026-05-05 05:43 46.53556 -122.72994 20083 ft 382 kts 360°
2026-05-05 05:44 46.55350 -122.73057 19721 ft 380 kts 359°
2026-05-05 05:44 46.57991 -122.73153 19169 ft 378 kts 359°
2026-05-05 05:44 46.60608 -122.73248 18613 ft 376 kts 359°
2026-05-05 05:44 46.63218 -122.73343 18024 ft 375 kts 359°
2026-05-05 05:45 46.65819 -122.73438 17440 ft 373 kts 359°
2026-05-05 05:45 46.68334 -122.73529 17291 ft 359 kts 359°
2026-05-05 05:45 46.70799 -122.73619 17117 ft 347 kts 359°
2026-05-05 05:45 46.73176 -122.73706 16963 ft 336 kts 359°
2026-05-05 05:46 46.75480 -122.73790 16865 ft 325 kts 359°
2026-05-05 05:46 46.77697 -122.73583 16712 ft 315 kts 15°
2026-05-05 05:46 46.79705 -122.72390 16396 ft 313 kts 30°
2026-05-05 05:46 46.81448 -122.70507 16091 ft 310 kts 37°
2026-05-05 05:47 46.83108 -122.68503 15738 ft 310 kts 38°
2026-05-05 05:47 46.84764 -122.66490 15375 ft 309 kts 38°
2026-05-05 05:47 46.86424 -122.64549 15014 ft 308 kts 36°
2026-05-05 05:47 46.88116 -122.62634 14657 ft 307 kts 36°
2026-05-05 05:48 46.89793 -122.60736 14496 ft 300 kts 36°
2026-05-05 05:48 46.91425 -122.58882 14332 ft 293 kts 36°
2026-05-05 05:48 46.93012 -122.57076 14199 ft 286 kts 36°
2026-05-05 05:48 46.94729 -122.55672 13870 ft 284 kts 17°
2026-05-05 05:49 46.96630 -122.54871 13522 ft 284 kts 15°
2026-05-05 05:49 46.98527 -122.54088 13196 ft 283 kts 15°
2026-05-05 05:49 47.00413 -122.53293 12889 ft 281 kts 16°
2026-05-05 05:49 47.02292 -122.52485 12588 ft 280 kts 16°
2026-05-05 05:50 47.04130 -122.51686 12299 ft 278 kts 16°
2026-05-05 05:50 47.05979 -122.50879 12020 ft 276 kts 17°
2026-05-05 05:50 47.07824 -122.50078 11724 ft 275 kts 15°
2026-05-05 05:50 47.09700 -122.49575 11447 ft 274 kts
2026-05-05 05:51 47.11592 -122.49279 11189 ft 273 kts
2026-05-05 05:51 47.13480 -122.48983 10905 ft 272 kts
2026-05-05 05:51 47.15366 -122.48663 10535 ft 275 kts
2026-05-05 05:51 47.17265 -122.48325 10236 ft 274 kts
2026-05-05 05:52 47.19158 -122.47984 9961 ft 273 kts
2026-05-05 05:52 47.21051 -122.47682 9665 ft 273 kts
2026-05-05 05:52 47.22930 -122.47400 9389 ft 271 kts
2026-05-05 05:52 47.24800 -122.47120 9117 ft 269 kts
2026-05-05 05:53 47.26647 -122.46842 8900 ft 265 kts
2026-05-05 05:53 47.28474 -122.46565 8625 ft 264 kts
2026-05-05 05:53 47.30303 -122.46286 8311 ft 264 kts
2026-05-05 05:53 47.32094 -122.46012 8086 ft 261 kts
2026-05-05 05:54 47.33928 -122.45731 7777 ft 261 kts
2026-05-05 05:54 47.35728 -122.45486 7513 ft 260 kts
2026-05-05 05:54 47.37516 -122.45460 7270 ft 258 kts
2026-05-05 05:54 47.39316 -122.45484 6964 ft 259 kts
2026-05-05 05:55 47.41102 -122.45507 6762 ft 255 kts 360°
2026-05-05 05:55 47.42870 -122.45523 6512 ft 253 kts 360°
2026-05-05 05:55 47.44632 -122.45530 6255 ft 252 kts 360°
2026-05-05 05:55 47.46385 -122.45533 6054 ft 252 kts 360°
2026-05-05 05:56 47.48148 -122.45535 6029 ft 256 kts 360°
2026-05-05 05:56 47.49934 -122.45536 5989 ft 255 kts
2026-05-05 05:56 47.51708 -122.45542 5886 ft 255 kts 360°
2026-05-05 05:56 47.53465 -122.45576 5685 ft 251 kts 359°
2026-05-05 05:57 47.55185 -122.45618 5383 ft 252 kts 359°
2026-05-05 05:57 47.56943 -122.45665 5141 ft 250 kts 359°
2026-05-05 05:57 47.58678 -122.45712 4821 ft 252 kts 359°
2026-05-05 05:57 47.60429 -122.45759 4561 ft 251 kts 359°
2026-05-05 05:58 47.62177 -122.45802 4310 ft 249 kts 359°
2026-05-05 05:58 47.63881 -122.45844 4224 ft 241 kts 359°
2026-05-05 05:58 47.65543 -122.45882 4078 ft 236 kts 359°
2026-05-05 05:58 47.67157 -122.45918 3996 ft 228 kts
2026-05-05 05:59 47.68623 -122.45383 3978 ft 219 kts 32°
2026-05-05 05:59 47.69636 -122.43727 3960 ft 220 kts 65°
2026-05-05 05:59 47.69940 -122.41541 3874 ft 212 kts 84°
2026-05-05 05:59 47.70063 -122.39414 3709 ft 204 kts 84°
2026-05-05 06:00 47.70189 -122.37324 3442 ft 202 kts 86°
2026-05-05 06:00 47.69968 -122.35293 3124 ft 201 kts 120°
2026-05-05 06:00 47.69047 -122.33785 3061 ft 200 kts 141°
2026-05-05 06:00 47.67982 -122.32458 3028 ft 203 kts 142°
2026-05-05 06:01 47.66718 -122.31644 2998 ft 195 kts 179°
2026-05-05 06:01 47.65393 -122.31771 3007 ft 194 kts 180°
2026-05-05 06:01 47.64034 -122.31717 3001 ft 196 kts 178°
2026-05-05 06:01 47.62668 -122.31677 2995 ft 192 kts 179°
2026-05-05 06:02 47.61377 -122.31669 2966 ft 179 kts 180°
2026-05-05 06:02 47.60144 -122.31673 2991 ft 176 kts 180°
2026-05-05 06:02 47.58917 -122.31681 2895 ft 175 kts 180°
2026-05-05 06:02 47.57723 -122.31690 2660 ft 166 kts 180°
2026-05-05 06:03 47.56605 -122.31698 2457 ft 156 kts 181°
2026-05-05 06:03 47.55566 -122.31707 2280 ft 145 kts 180°
2026-05-05 06:03 47.54574 -122.31715 2069 ft 144 kts 181°
2026-05-05 06:03 47.53572 -122.31722 1872 ft 142 kts 181°
2026-05-05 06:04 47.52600 -122.31730 1684 ft 140 kts 182°
2026-05-05 06:04 47.51619 -122.31738 1498 ft 140 kts 181°
2026-05-05 06:04 47.50646 -122.31746 1329 ft 140 kts 181°
2026-05-05 06:04 47.49655 -122.31737 1149 ft 145 kts 179°
2026-05-05 06:05 47.48641 -122.31720 1010 ft 147 kts 183°
2026-05-05 06:05 47.47622 -122.31783 851 ft 145 kts 182°
2026-05-05 06:05 47.46617 -122.31779 598 ft 144 kts 181°
2026-05-05 06:05 47.45653 -122.31792 411 ft 129 kts 178°
2026-05-05 06:06 47.44928 -122.31796 390 ft 65 kts 181°
2026-05-05 06:06 47.44648 -122.31769 382 ft 35 kts 165°
2026-05-05 06:06 47.44484 -122.31658 375 ft 20 kts 150°
2026-05-05 06:06 47.44367 -122.31563 374 ft 19 kts 150°
2026-05-05 06:07 47.44264 -122.31442 377 ft 18 kts 127°
2026-05-05 06:07 47.44219 -122.31273 380 ft 17 kts 105°
2026-05-05 06:07 47.44165 -122.31119 382 ft 17 kts 132°
2026-05-05 06:07 47.44071 -122.31023 380 ft 16 kts 150°
2026-05-05 06:08 47.43974 -122.30942 378 ft 16 kts 150°
2026-05-05 06:08 47.43909 -122.30824 379 ft 15 kts 103°
2026-05-05 06:08 47.43898 -122.30684 378 ft 12 kts 105°
2026-05-05 06:08 47.43829 -122.30635 378 ft 12 kts 178°
2026-05-05 06:09 47.43753 -122.30627 376 ft 11 kts 164°
2026-05-05 06:09 47.43722 -122.30537 378 ft 10 kts 88°
2026-05-05 06:09 47.43722 -122.30493 378 ft 0 kts 89°
2026-05-05 06:10 47.43722 -122.30492 379 ft 0 kts 84°
2026-05-05 06:11 47.43725 -122.30488 379 ft 1 kts 57°
2026-05-05 06:11 47.43732 -122.30482 379 ft 2 kts 30°
2026-05-05 06:11 47.43743 -122.30477 380 ft 2 kts 15°
2026-05-05 06:11 47.43753 -122.30472 381 ft 1 kts 16°
2026-05-05 06:12 47.43765 -122.30463 382 ft 3 kts 33°
2026-05-05 06:12 47.43783 -122.30440 382 ft 3 kts 42°
2026-05-05 06:12 47.43795 -122.30423 383 ft 2 kts 42°
2026-05-05 06:12 47.43807 -122.30406 383 ft 2 kts 45°
2026-05-05 06:13 47.43809 -122.30403 383 ft 0 kts 44°